Location: Oshawa
(43.9000°N, 78.8670°W)
Time: 22:23:37
(UTC-04:00)

Iridium 98 - Visible Passes

Search period start: 04 August 2015 00:00
Search period end: 14 August 2015 00:00
Orbit: 776 x 779 km, 86.4° (Epoch: 04 August)

Date Brightness Start Highest point End Pass type
(mag) Time Alt. Az. Time Alt. Az. Time Alt. Az.
04 Aug 6.9 00:10:50 26° ENE 00:10:50 26° ENE 00:14:42 10° NNE visible
04 Aug 6.4 01:51:18 38° WNW 01:51:18 38° WNW 01:55:49 10° NNW visible
04 Aug 7.5 23:37:25 15° ENE 23:37:25 15° ENE 23:40:03 10° NE visible
05 Aug 5.8 01:17:53 63° NW 01:17:53 63° NW 01:22:32 10° N visible
06 Aug 5.9 00:44:28 59° NE 00:44:28 59° NE 00:48:58 10° N visible
06 Aug 7.6 02:24:57 16° WNW 02:25:08 16° WNW 02:28:12 10° NW visible
07 Aug 6.5 00:11:03 35° ENE 00:11:03 35° ENE 00:15:09 10° NNE visible
07 Aug 7.0 01:51:31 27° WNW 01:51:31 27° WNW 01:55:37 10° NNW visible
07 Aug 7.2 23:37:37 21° ENE 23:37:37 21° ENE 23:40:56 10° NNE visible
08 Aug 6.3 01:18:06 46° WNW 01:18:06 46° WNW 01:22:31 10° N visible
08 Aug 7.7 23:04:12 11° ENE 23:04:12 11° ENE 23:05:39 10° NE visible
09 Aug 5.8 00:44:40 65° N 00:44:40 65° N 00:49:07 10° N visible
09 Aug 7.9 02:25:08 11° WNW 02:25:33 11° WNW 02:26:51 10° NW visible
10 Aug 6.1 00:11:13 47° NE 00:11:13 47° NE 00:15:27 10° NNE visible
10 Aug 7.4 01:51:42 20° WNW 01:51:42 20° WNW 01:55:14 10° NNW visible
10 Aug 6.8 23:37:47 28° ENE 23:37:47 28° ENE 23:41:30 10° NNE visible
11 Aug 6.8 01:18:15 33° WNW 01:18:15 33° WNW 01:22:24 10° NNW visible
11 Aug 7.4 23:04:20 16° ENE 23:04:20 16° ENE 23:07:02 10° NE visible
12 Aug 6.1 00:44:48 54° NW 00:44:48 54° NW 00:49:10 10° N visible
13 Aug 5.9 00:11:20 59° NNE 00:11:20 59° NNE 00:15:39 10° N visible
13 Aug 7.8 01:51:49 14° WNW 01:51:54 14° WNW 01:54:30 10° NW visible
13 Aug 6.4 23:37:52 38° ENE 23:37:52 38° ENE 23:41:53 10° NNE visible
